This is the latest recevied weather packets stored in our database for station/object K7KAR-2. If no packets are shown the sender has not sent any weather packets the latest 10 day(s).
| Time | Temp. | Humidity | Pressure | Rain* | Wind** | Luminosity | Snow |
|---|---|---|---|---|---|---|---|
| 1778281136 | 22.22° C | 10% | 1008.1 hPa | 0 mm | - | 370 W/m² | - |
| 1778280832 | 22.22° C | 10% | 1008.2 hPa | 0 mm | - | 198 W/m² | - |
| 1778280530 | 22.78° C | 10% | 1008.2 hPa | 0 mm | - | 399 W/m² | - |
| 1778280228 | 22.78° C | 10% | 1008.3 hPa | 0 mm | - | 378 W/m² | - |
| 1778279925 | 22.78° C | 10% | 1008.3 hPa | 0 mm | - | 528 W/m² | - |
| 1778279622 | 22.22° C | 10% | 1008.3 hPa | 0 mm | - | 268 W/m² | - |
| 1778279320 | 22.22° C | 10% | 1008.3 hPa | 0 mm | - | 234 W/m² | - |
| 1778279017 | 22.78° C | 10% | 1008.1 hPa | 0 mm | - | 302 W/m² | - |
| 1778278713 | 22.22° C | 10% | 1008.5 hPa | 0 mm | - | 467 W/m² | - |
| 1778278409 | 22.78° C | 10% | 1008.4 hPa | 0 mm | - | 323 W/m² | - |
| 1778278105 | 22.78° C | 10% | 1008.5 hPa | 0 mm | - | 273 W/m² | - |
| 1778277802 | 21.67° C | 10% | 1008.5 hPa | 0 mm | - | 603 W/m² | - |
| 1778277499 | 21.67° C | 13% | 1008.6 hPa | 0 mm | - | 219 W/m² | - |
| 1778277195 | 21.67° C | 13% | 1008.6 hPa | 0 mm | - | 215 W/m² | - |
| 1778276892 | 21.67° C | 10% | 1008.7 hPa | 0 mm | - | 174 W/m² | - |
| 1778276589 | 22.22° C | 11% | 1008.8 hPa | 0 mm | - | 196 W/m² | - |
| 1778276286 | 21.67° C | 11% | 1009.2 hPa | 0 mm | - | 219 W/m² | - |
| 1778275983 | 21.11° C | 13% | 1008.9 hPa | 0 mm | - | 702 W/m² | - |
| 1778275679 | 20.56° C | 14% | 1008.9 hPa | 0 mm | - | 626 W/m² | - |
| 1778275375 | 20.56° C | 14% | 1009.2 hPa | 0 mm | - | 235 W/m² | - |
| 1778275071 | 20° C | 19% | 1009.3 hPa | 0 mm | - | 592 W/m² | - |
| 1778274767 | 20° C | 22% | 1009.3 hPa | 0 mm | - | 356 W/m² | - |
| 1778274465 | 20° C | 21% | 1009.4 hPa | 0 mm | - | 782 W/m² | - |
| 1778274161 | 20° C | 21% | 1009.5 hPa | 0 mm | - | 286 W/m² | - |
| 1778273858 | 19.44° C | 22% | 1009.8 hPa | 0 mm | - | 708 W/m² | - |
* Rain latest hour (hover to see other rain measurements)
** Current wind speed in m/s (hover to see current wind gust speed)